Find Starlink 34766

NORAD ID: 66505 Int'l Des: 2025-263 Owner: SPXS Country: US Constellation: starlink operational
LEOCIRCULAR

Current View

Loading 3D Globe...

About Starlink 34766

Starlink 34766 (NORAD 66505) is a starlink constellation satellite (v2 mini) launched Nov 15, 2025 by SPXS of US. It operates in LEO, CIRCULAR orbit with a mass of 575.00 kg.

Upcoming Passes

Passes for default location (London). Set your location on the main map for personalized predictions.

Altitude History

Loading altitude history...

Two-Line Element Set

1 66505U 25263W 26237.06153200 .00014748 00000-0 54400-3 0 9997
2 66505 43.0048 119.4331 0002218 247.4267 112.6350 15.27602878 44653
Epoch: Aug 25, 2026 • Age: 19 hours

Current Status

Altitude 483.0 km
Apogee / Perigee N/A
Velocity 7.63 km/s
Sub-Earth Point 2.38°N, 161.41°W
Launch Date Nov 15, 2025
Age 0.7 years
Type internet

Technical Details

Classification Payload
Mass 575.00 kg
Dry Mass 530.00 kg
Total Mass 575.00 kg
Length 0.30 m
Diameter 4.10 m
Span 29.00 m
Shape Box + pan
Manufacturer SPXS
Bus Type Starlink V2MO
Phase Status In Orbit
Owner/State SPXS/US

Most Searched